Location: Bacharowice
(49.9333°N, 19.5833°E)
Time: 13:01:16
(UTC+00:00)

NOSS 3-4 (C) - Pass Details

Date: 11 May 2021
Orbit: 873 x 1339 km, 63.4° (Epoch: 06 May)

Event Time Altitude Azimuth Distance (km) Brightness Sun altitude
Rises 19:20:31 0° 315° (NW) 3,737 9.0 -9.2°
Reaches altitude 10° 19:23:03 10° 319° (NW) 2,846 7.6 -9.5°
Maximum altitude 19:29:46 61° 40° (NE) 1,266 4.1 -10.3°
Enters shadow 19:36:47 12° 120° (ESE) 3,002 5.4 -11.1°
